Location: Brno
(49.2000°N, 16.6330°E)
Time: 07:13:04
(UTC+02:00)

Daily predictions for brighter satellites

Satellite Brightness Start Highest point End
(mag) Time Altitude Azimuth Time Altitude Azimuth Time Altitude Azimuth
Cosmos 2242 Rocket 3.6 20:32:46 10° S 20:37:13 65° E 20:41:40 10° NNE
SPOT 5 4.3 20:35:26 10° ESE 20:38:57 21° ENE 20:42:22 10° NNE
CZ-4B DEB 2.7 20:36:27 10° SSE 20:39:27 58° ENE 20:42:27 10° N
Cosmos 2322 Rocket 2.2 20:34:36 10° SSW 20:40:08 64° ESE 20:45:43 10° NNE
USA 186 2.2 20:37:24 10° S 20:40:11 57° W 20:43:12 10° NNW
Cosmos 1939 Rocket 2.9 20:42:44 10° SSE 20:46:44 67° ENE 20:50:42 10° N
COSMOS 2428 4.3 20:43:47 10° SE 20:46:51 15° E 20:49:57 10° ENE
BREEZE-M DEB (TANK) 3.5 20:44:28 10° WSW 20:47:35 60° SSE 20:56:02 10° E
Cosmos 2360 Rocket 2.9 20:43:57 10° SSE 20:48:52 32° ESE 20:53:51 10° NE
Cosmos 1980 Rocket 3.4 20:44:13 10° SW 20:49:43 49° NW 20:55:16 10° NNE
Lacrosse 4 Rocket 3.1 20:49:44 10° NW 20:53:34 32° WSW 20:57:29 10° S
Helios 1B rocket 2.4 20:49:31 10° NNE 20:53:38 66° ESE 20:57:42 10° S
Cosmos 2026 Rocket 4.3 20:47:34 10° NNW 20:53:49 73° W 20:59:55 10° S
USA 234 3.4 20:47:48 10° SE 20:54:20 75° SW 21:00:55 10° WNW
Resurs 01 Rocket 3.5 20:54:19 10° SSW 20:58:17 31° W 21:02:16 10° NNW
ATLAS 5 CENTAUR R/B 2.5 20:54:56 10° NW 21:00:48 77° SW 21:07:14 10° SSE
Cosmos 968 Rocket 3.5 20:57:45 10° NNW 21:02:58 76° ENE 21:08:12 10° SSE
Cosmos 2322 4.3 20:58:14 10° S 21:03:22 36° ESE 21:08:32 10° NE
SL-16 R/B 2.3 21:04:12 10° SSW 21:09:53 82° WNW 21:15:36 10° NNE
H-2A R/B 4.1 21:08:49 10° E 21:11:20 16° ENE 21:13:54 10° NNE
Cosmos 1908 Rocket 3.5 21:07:36 10° N 21:11:57 70° E 21:16:16 10° SSE
Sich 1 Rocket 3.6 21:07:46 10° N 21:12:15 71° E 21:16:45 10° SSE
Cosmos 1825 3.9 21:09:08 10° NNW 21:12:35 33° W 21:16:02 10° SSW
Intercosmos 25 Rocket 3.9 21:09:26 10° SSW 21:12:47 62° WNW 21:17:34 10° N
Cosmos 1867 3.7 21:08:06 10° NW 21:13:35 74° SW 21:18:32 12° SSE
ARGOS 3.7 21:10:19 13° SE 21:14:48 43° ENE 21:19:52 10° N
H-2A R/B 3.0 21:17:15 15° ESE 21:20:38 30° ENE 21:24:54 10° N
Envisat 3.8 21:16:10 10° S 21:21:07 52° W 21:26:06 10° NNW
CENTAUR R/B 4.3 21:15:45 10° W 21:21:45 37° NNW 21:28:33 10° NE
Cosmos 2278 Rocket 3.5 21:21:17 10° NNW 21:26:13 29° NE 21:30:19 13° E
Cosmos 1782 Rocket 3.7 21:22:02 10° N 21:26:22 59° ENE 21:29:41 17° SSE
Cosmos 2333 Rocket 3.8 21:25:44 14° ESE 21:26:38 15° E 21:29:42 10° ENE
Cosmos 2237 Rocket 4.1 21:27:02 10° E 21:27:02 10° E 21:27:48 10° E
Cosmos 1844 Rocket 2.9 21:23:03 10° NNW 21:28:34 56° ENE 21:32:34 19° SE
Terra 3.4 21:26:20 14° E 21:29:00 21° ENE 21:32:34 10° NNE
USA 245 4.2 21:29:35 16° SSE 21:33:57 59° ENE 21:38:32 10° N
Cosmos 1606 4.0 21:36:09 20° ESE 21:36:51 21° E 21:39:46 10° NE
Okean 2 Rocket 3.3 21:33:09 10° N 21:37:39 57° ENE 21:40:29 21° SSE
Meteor 1-29 4.3 21:35:03 10° N 21:38:22 43° WNW 21:41:40 10° SW
USA 229 DEB 3.8 21:33:46 10° SSW 21:40:21 53° ESE 21:47:04 10° NE
USA 229 3.8 21:33:53 10° SSW 21:40:27 53° ESE 21:47:11 10° NE
Cosmos 2266 Rocket 4.1 21:36:16 10° N 21:42:34 85° W 21:48:41 11° S
Okean 1-7 3.2 21:41:20 17° SSE 21:44:30 54° E 21:48:50 10° NNE
MetOp-A 4.1 21:40:03 15° SSE 21:44:36 86° WSW 21:50:00 10° NNW
ERS-1 Rocket 3.4 21:42:04 10° S 21:46:57 60° WSW 21:51:57 10° NNW
SeaSat 1 2.4 21:48:46 23° SE 21:51:51 81° ENE 21:56:50 10° NNW
Cosmos 2219 Rocket 3.1 21:51:05 24° SE 21:52:52 28° ESE 21:57:35 10° NE
Meteor 1-26 Rocket 4.4 21:48:08 10° SSW 21:53:52 81° WNW 21:59:44 10° N
MOS 1-B Rocket 3.8 21:50:52 19° SSE 21:55:09 83° ENE 22:00:47 10° NNW
Meteor 2-10 Rocket 4.1 21:50:59 10° SSW 21:56:47 67° WNW 22:02:32 10° N
USA 267 3.8 21:53:54 10° ENE 22:00:20 61° NNW 22:06:45 10° W
Abrixas rocket 2.0 21:57:23 10° W 22:00:40 76° S 22:01:35 44° ESE
Cosmos 2084 3.6 21:56:57 10° NW 22:00:43 53° NE 22:02:17 31° ESE
Cosmos 1703 Rocket 3.9 21:59:05 10° SSW 22:03:30 68° W 22:07:55 10° N
Cosmos 1244 Rocket 4.5 22:01:39 10° N 22:07:55 74° E 22:11:44 25° SSE
SPOT 1/Viking Rocket 3.5 22:05:08 26° SSE 22:08:12 86° ENE 22:13:27 10° NNW
Cosmos 1898 Rocket 4.4 22:03:51 10° N 22:08:37 35° ENE 22:10:55 24° ESE
Cosmos 2263 Rocket 4.3 22:05:53 10° NW 22:09:46 20° W 22:13:39 10° SW
Cosmos 2151 Rocket 3.6 22:07:19 10° N 22:11:44 63° ENE 22:13:21 37° SE
Iridium 4 Rocket 4.0 22:09:25 10° NNE 22:13:05 29° ENE 22:13:40 27° E
Cosmos 1777 Rocket 4.4 22:08:40 10° NNW 22:13:51 57° WSW 22:16:59 23° S
Atlas Centaur 2 4.2 22:09:40 10° SW 22:14:24 18° S 22:14:41 18° S
Cosmos 1782 2.7 22:13:48 37° S 22:15:17 71° E 22:19:18 10° NNE
SPOT 5 3.2 22:13:42 22° S 22:16:43 57° WSW 22:21:14 10° NNW
ATLAS 3B R/B 4.1 22:12:26 10° NW 22:18:36 31° NNE 22:24:29 10° E
CARTOSAT-1 3.9 22:17:33 37° ESE 22:18:49 50° ENE 22:23:02 10° N
CZ-4C R/B 2.9 22:12:18 10° NW 22:19:12 71° NE 22:23:44 27° ESE
Cosmos 2237 4.2 22:15:18 10° SSW 22:21:03 89° WNW 22:26:49 10° NNE
Cosmos 1553 Rocket 4.3 22:18:45 30° SE 22:21:31 49° E 22:27:27 10° NNE
PSLV R/B 4.2 22:22:09 31° NE 22:22:09 31° NE 22:24:16 10° N
Cosmos 2221 Rocket 4.1 22:18:34 13° SSW 22:22:24 58° WNW 22:26:49 10° N
Cosmos 2322 Rocket 4.3 22:19:49 10° WSW 22:24:38 28° NW 22:29:29 10° NNE
ASTEX 1 3.5 22:24:19 37° SE 22:26:06 60° E 22:31:01 10° N
Meteor 1-10 Rocket 4.2 22:22:26 24° S 22:26:10 76° E 22:32:02 10° NNE
Meteor 1-11 Rocket 3.7 22:20:45 10° N 22:26:15 64° ENE 22:28:27 36° SE
COSMOS 2428 2.6 22:24:33 10° SSW 22:30:15 85° ESE 22:36:00 10° NNE
Okean 1 Rocket 3.7 22:26:06 10° N 22:30:18 39° ENE 22:31:04 36° E
Cosmos 1346 Rocket 3.1 22:31:57 45° E 22:31:57 45° E 22:35:47 10° NNE
Cosmos 1602 3.6 22:28:28 10° N 22:32:20 69° E 22:32:49 60° SE
Cosmos 2360 Rocket 3.1 22:27:12 10° SW 22:32:41 49° NW 22:38:13 10° NNE
Cosmos 1674 Rocket 3.8 22:36:07 46° ESE 22:36:27 47° E 22:40:36 10° NNE
SL-08 RB Rocket 4.5 22:34:58 26° SSW 22:37:13 46° W 22:41:37 10° NNW
IGS 5A 3.4 22:37:47 55° SE 22:38:34 73° ENE 22:42:43 10° N
Cosmos 1844 4.0 22:34:20 10° NW 22:39:57 60° WSW 22:42:16 34° S
Cosmos 1980 4.0 22:41:42 40° SE 22:42:32 43° ESE 22:47:52 10° NE
CRYOSAT 2 4.4 22:43:14 48° SE 22:44:26 65° E 22:49:17 10° N
ATLAS 5 CENTAUR R/B 4.4 22:40:58 10° WNW 22:44:52 18° WSW 22:48:52 10° SSW
H-2A R/B 2.1 22:45:47 51° S 22:46:47 75° WSW 22:51:10 10° NNW
Cosmos 1633 2.8 22:43:30 10° NNW 22:47:09 62° W 22:47:33 57° SW
SL-16 R/B 3.7 22:49:15 20° E 22:49:15 20° E 22:52:33 10° NE
Landsat 7 4.2 22:49:37 38° SSW 22:51:14 59° W 22:55:58 10° NNW
S3M 3.9 22:49:17 37° S 22:51:53 75° E 22:58:07 10° NNE
Cosmos 1709 Rocket 4.5 22:49:26 10° N 22:55:37 48° ENE 22:57:37 36° ESE
Geosat 4.0 22:51:25 10° NE 22:56:24 57° ESE 22:57:04 52° SSE
ALOS 2 4.5 22:57:46 18° ENE 22:58:32 19° ENE 23:01:33 10° NNE
CZ-4B R/B 3.5 22:54:11 10° NNE 22:58:50 51° E 22:59:04 50° ESE
H-2A R/B 2.9 22:57:53 28° SSW 22:59:57 41° W 23:04:37 10° NNW
Cosmos 1975 Rocket 4.3 23:00:33 27° ENE 23:00:33 27° ENE 23:03:52 10° NNE
DMSP B5D2-2 4.1 22:59:21 10° NNE 23:04:38 82° WNW 23:06:42 39° SSW
Cosmos 2298 Rocket 4.0 22:59:33 10° NNW 23:04:56 80° ENE 23:06:07 55° SE
Terra 2.1 23:05:13 46° SSW 23:06:22 59° W 23:11:06 10° NNW
Cosmos 1300 Rocket 3.6 23:03:20 10° NNW 23:07:41 68° W 23:08:13 60° SW
Cosmos 2237 Rocket 2.2 23:08:48 52° SSE 23:09:57 64° ESE 23:15:35 10° NNE
Cosmos 2333 Rocket 2.1 23:07:38 38° SSW 23:09:59 83° ESE 23:15:48 10° NNE
Cosmos 2278 Rocket 2.4 23:05:07 10° NW 23:10:43 62° WSW 23:12:10 46° SSW
Cosmos 1844 Rocket 4.1 23:07:30 10° NW 23:12:07 27° WSW 23:14:14 21° SW
Meteor 2-11 Rocket 4.3 23:10:02 44° S 23:12:09 85° E 23:18:17 10° N
Cosmos 1606 4.2 23:11:12 25° WSW 23:12:28 32° WNW 23:15:54 10° N
Cosmos 1536 2.8 23:09:54 10° NNW 23:13:58 77° W 23:13:58 77° W
CZ-2C R/B 4.2 23:12:57 10° NE 23:16:56 21° E 23:16:56 21° E
Spot 4 3.7 23:18:10 66° S 23:18:49 79° WSW 23:23:37 10° NNW
Cosmos 1570 Rocket 4.3 23:16:34 29° SW 23:19:15 64° WNW 23:24:32 10° NNE
Cosmos 1745 Rocket 4.3 23:14:38 10° NNW 23:20:52 62° W 23:23:17 38° SSW
NOSS 3-1 (C) 3.4 23:20:54 18° SW 23:25:29 84° NW 23:32:16 10° NE
CZ-4C R/B 3.6 23:27:44 60° NW 23:27:44 60° NW 23:30:52 10° NNW
Cosmos 1937 Rocket 3.4 23:22:40 10° NNW 23:27:57 80° WSW 23:28:38 66° S
Cosmos 2208 Rocket 4.5 23:25:33 29° SW 23:28:12 60° WNW 23:33:28 10° NNE
CZ-4 R/B 3.9 23:23:54 10° NNE 23:28:42 77° WNW 23:29:34 59° SW
SeaSat 1 4.4 23:28:34 16° SW 23:29:56 17° WSW 23:33:11 10° WNW
Meteor 1-5 Rocket 4.3 23:25:17 10° NNW 23:30:55 73° W 23:32:12 54° SSW
Cosmos 2285 Rocket 4.2 23:31:43 49° SE 23:32:31 53° ESE 23:38:41 10° NNE
Cosmos 1378 Rocket 3.5 23:35:35 80° W 23:35:36 80° W 23:40:03 10° N
Cosmos 2219 Rocket 2.8 23:32:43 20° SW 23:36:30 55° NW 23:42:03 10° NNE
Cosmos 1340 4.1 23:38:19 32° NE 23:38:19 32° NE 23:40:40 10° NNE
Cosmos 990 Rocket 3.8 23:33:41 10° NNW 23:38:51 77° WSW 23:39:16 71° SSW
Cosmos 2150 Rocket 4.2 23:34:12 10° NNW 23:39:35 63° WSW 23:40:18 57° SW
NOSS 3-1 (A) 3.4 23:38:32 33° SW 23:41:28 87° NW 23:48:15 10° NE
Cosmos 1500 4.2 23:38:16 10° N 23:41:15 40° NE 23:41:15 40° NE
USA 267 4.3 23:36:39 10° ENE 23:42:48 45° N 23:48:57 10° WNW
Cosmos 1544 Rocket 3.9 23:38:44 10° N 23:42:49 55° ENE 23:42:49 55° ENE
ATLAS 2AS CENTAUR R/B 3.6 23:42:45 36° ESE 23:43:11 37° ESE 23:50:23 10° NE
Meteor 1-18 Rocket 4.4 23:46:20 54° ESE 23:46:51 55° E 23:52:36 10° NNE
Cosmos 371 Rocket 3.8 23:50:20 48° ENE 23:50:20 48° ENE 23:54:23 10° NNE
Cosmos 1898 Rocket 4.3 23:45:58 10° NW 23:50:44 38° WSW 23:51:12 37° WSW
CZ-4B R/B 4.1 23:51:55 13° NE 23:51:55 13° NE 23:53:00 10° NNE
NOSS 0 Rocket 4.3 23:49:53 27° SW 23:53:15 63° NW 23:59:23 10° NNE
